weather.gov     
National Weather Service

Regional Weather Roundup
NWS Homepage
This page is being discontinued on March 12, 2014.
The same data is available at this site. Please update your bookmarks.
Thank you, and we apologize for the inconvenience.
Please send an email to SR-SRH.Webmaster@noaa.gov with any concerns.


Current Version
Previous Version:    01  02  03  04  05  06  07  08  09  10  11  12  13  14  15  16  17  18  19  20  21  22  23  24  25  26  27  28  29  30  
   31  32  33  34  35  36  37  38  39  40  41  42  43  44  45  46  47  48  49  50  51  52  53  
[Printable]
358
ASUS44 KOUN 011610
RWROK

WEATHER ROUNDUP FOR OKLAHOMA
NATIONAL WEATHER SERVICE NORMAN OK
1000 AM CST SUN FEB 01 2015

NOTE: "FAIR" INDICATES FEW OR NO CLOUDS BELOW 12,000 FEET WITH NO
      SIGNIFICANT WEATHER AND/OR OBSTRUCTIONS TO VISIBILITY.

OKZ001>007-009>012-014-015-017-011700-
NORTHWEST OKLAHOMA AND THE PANHANDLE

CITY           SKY/WX    TMP DP  RH WIND       PRES   REMARKS
GAGE           MOSUNNY   29  19  66 N24G35    30.12R WCI  15
ENID/WOODRING  CLOUDY    32  27  80 NW25G35   30.03R WCI  19
$$

OKZ016-021>023-033>039-044-045-011700-
SOUTHWEST OKLAHOMA

CITY           SKY/WX    TMP DP  RH WIND       PRES   REMARKS
LAWTON/REGL    CLOUDY    42  32  67 N29G39    30.02R
LAWTON/FT SILL CLOUDY    40  33  75 N22G36    30.01R WCI  30
CLINTON        MOSUNNY   35  25  66 N29G38    30.07R WCI  22
HOBART         PTSUNNY   36  28  73 N28G33    30.07R WCI  23
ALTUS AFB      CLOUDY    39  32  77 N22G29    30.07R WCI  28
$$

OKZ018>020-024>031-011700-
CENTRAL OKLAHOMA

CITY           SKY/WX    TMP DP  RH WIND       PRES   REMARKS
OKLAHOMA CITY  CLOUDY    36  28  73 NW31G39   30.00R WCI  23
OKC/WILEY POST CLOUDY    35  28  75 NW26G37   30.02R WCI  22
OKC/TINKER AFB PTSUNNY   37  30  75 NW25G37   29.99R WCI  26
STILLWATER     CLOUDY    34  27  75 NW22G32   30.00R WCI  22
GUTHRIE        CLOUDY    34  26  72 NW20G35   30.03R WCI  23
$$

OKZ008-013-054>072-011700-
NORTHEAST OKLAHOMA

CITY           SKY/WX    TMP DP  RH WIND       PRES   REMARKS
TULSA          CLOUDY    38  33  82 NW23G32   29.92R WCI  27
TULSA/JONES    CLOUDY    37  31  78 NW9G23    29.94R WCI  30
PONCA CITY     CLOUDY    32  24  72 NW23G39   30.00R WCI  19
BARTLESVILLE   CLOUDY    36  32  85 NW8G17    29.94R WCI  30
MUSKOGEE       CLOUDY    41  35  79 NW26G35   29.91R
$$

OKZ032-040>043-046>053-073>077-011700-
SOUTH CENTRAL/SOUTHEAST OKLAHOMA

CITY           SKY/WX    TMP DP  RH WIND       PRES   REMARKS
ARDMORE/DWNTWN PTSUNNY   43  39  87 N9G18     29.97R
MCALESTER      LGT RAIN  45  38  76 NW20G32   29.92R
$$





U.S. Dept. of Commerce
NOAA National Weather Service
1325 East West Highway
Silver Spring, MD 20910
E-mail: w-nws.webmaster@noaa.gov
Page last modified: May 16, 2007
NATIONAL WEATHER SERVICE: for Safety, for Work, for Fun - FOR LIFE